This is the latest recevied weather packets stored in our database for station/object PA3FNT-13. If no packets are shown the sender has not sent any weather packets the latest 10 day(s).
| Time | Temp. | Humidity | Pressure | Rain* | Wind** | Luminosity | Snow |
|---|---|---|---|---|---|---|---|
| 1788241697 | 26.67° C | 44% | 1017.5 hPa | - | - | - | - |
| 1788240797 | 26.67° C | 45% | 1017.4 hPa | - | - | - | - |
| 1788239897 | 26.67° C | 45% | 1017.3 hPa | - | - | - | - |
| 1788238997 | 26.67° C | 44% | 1017.2 hPa | - | - | - | - |
| 1788238096 | 27.22° C | 43% | 1017.1 hPa | - | - | - | - |
| 1788237196 | 27.78° C | 44% | 1017 hPa | - | - | - | - |
| 1788236296 | 27.22° C | 44% | 1016.9 hPa | - | - | - | - |
| 1788235396 | 27.22° C | 43% | 1016.8 hPa | - | - | - | - |
| 1788234496 | 27.78° C | 43% | 1016.7 hPa | - | - | - | - |
| 1788233596 | 27.22° C | 44% | 1016.7 hPa | - | - | - | - |
| 1788232695 | 27.22° C | 43% | 1016.5 hPa | - | - | - | - |
| 1788231801 | 27.22° C | 44% | 1016.5 hPa | - | - | - | - |
| 1788230895 | 27.22° C | 44% | 1016.5 hPa | - | - | - | - |
| 1788229995 | 27.22° C | 44% | 1016.5 hPa | - | - | - | - |
| 1788229095 | 27.22° C | 43% | 1016.4 hPa | - | - | - | - |
| 1788228194 | 27.22° C | 43% | 1016.4 hPa | - | - | - | - |
| 1788227294 | 27.22° C | 43% | 1016.2 hPa | - | - | - | - |
| 1788226394 | 28.33° C | 41% | 1016.3 hPa | - | - | - | - |
| 1788225494 | 27.78° C | 43% | 1016.1 hPa | - | - | - | - |
| 1788224594 | 27.22° C | 44% | 1016.1 hPa | - | - | - | - |
| 1788223694 | 27.78° C | 44% | 1016 hPa | - | - | - | - |
| 1788222793 | 27.78° C | 43% | 1016 hPa | - | - | - | - |
| 1788221893 | 27.22° C | 43% | 1015.9 hPa | - | - | - | - |
| 1788220993 | 26.67° C | 44% | 1015.9 hPa | - | - | - | - |
| 1788220093 | 26.67° C | 44% | 1015.8 hPa | - | - | - | - |
* Rain since midnight (hover to see other rain measurements)
** Current wind speed in m/s (hover to see current wind gust speed)